Weather History for Akron, CO

Change the Weather History Date:

Wednesday, August 7, 2013

  Actual Average Record
Temperature  
Mean Temperature 63 °F 73 °F  
Max Temperature 67 °F 87 °F 101 °F (1995)
Min Temperature 59 °F 60 °F 49 °F (1939)
Degree Days  
Heating Degree Days 2    
Month to date heating degree days 2  
Cooling Degree Days 0    
Month to date cooling degree days 55  
Growing Degree Days 13 (Base 50)    
Moisture  
Dew Point 56 °F    
Average Humidity 78    
Maximum Humidity 93    
Minimum Humidity 63    
Precipitation  
Precipitation 0.05 in 0.08 in 1.81 in (1959)
Month to date precipitation 0.48 0.64  
Year to date precipitation 9.49 11.83  
Sea Level Pressure  
Sea Level Pressure 30.00 in    
Wind  
Wind Speed 11 mph (SSE)    
Max Wind Speed 26 mph    
Max Gust Speed 37 mph    
Visibility 10 miles    
Events Rain , Thunderstorm    
T = Trace of Precipitation, MM = Missing Value Source: NWS Daily Summary

Daily Weather History Graph

Daily Weather History Graph

Search for Another Location

Airport:

Trip Planner

Search our weather history database for the weather conditions in past years. The results will help you decide how hot, cold, wet, or windy it might be!

Date:

Astronomy

Aug. 07, 2013 Rise Set
Actual Time 5:56 AM MDT 7:59 PM MDT
Civil Twilight 5:26 AM MDT 8:29 PM MDT
Nautical Twilight 4:50 AM MDT 9:05 PM MDT
Astronomical Twilight 4:10 AM MDT 9:45 PM MDT
Moon 6:47 AM MDT (8/7) 8:08 PM MDT (8/7)
Length of Visible Light 15h 02m
Length of Day
14h 02m
New Moon, 1% of the Moon is Illuminated
Aug 7
New Moon
Aug 14
First Quarter
Aug 20
Full
Aug 28
Last Quarter
Sep 5
New

Hourly Weather History & Observations

Time (MDT) Temp. Dew Point Humidity Pressure Visibility Wind Dir Wind Speed Gust Speed Precip Events Conditions
12:53 AM 63.0 °F 57.0 °F 81% 29.92 in 10.0 mi ESE 11.5 mph - N/A   Clear
1:53 AM 62.1 °F 55.9 °F 80% 29.93 in 10.0 mi ESE 15.0 mph - N/A   Clear
2:53 AM 62.1 °F 54.0 °F 75% 29.89 in 10.0 mi SSE 9.2 mph - N/A   Clear
3:53 AM 62.1 °F 54.0 °F 75% 29.89 in 10.0 mi SSE 9.2 mph - N/A   Clear
4:53 AM 62.1 °F 54.0 °F 75% 29.90 in 10.0 mi SSE 10.4 mph - N/A   Clear
5:53 AM 60.1 °F 55.0 °F 83% 29.95 in 10.0 mi Variable 4.6 mph - N/A   Clear
6:53 AM 61.0 °F 55.0 °F 81% 29.97 in 10.0 mi Variable 5.8 mph - N/A   Clear
7:53 AM 61.0 °F 54.0 °F 78% 29.99 in 10.0 mi NE 8.1 mph - N/A   Clear
8:53 AM 64.0 °F 54.0 °F 70% 30.01 in 10.0 mi East 3.5 mph - N/A   Partly Cloudy
9:53 AM 66.9 °F 53.1 °F 61% 30.01 in 10.0 mi South 10.4 mph - N/A   Partly Cloudy
10:28 AM 66.2 °F 53.6 °F 64% 30.16 in 10.0 mi SSE 10.4 mph - N/A   Mostly Cloudy
10:40 AM 66.2 °F 53.6 °F 64% 30.16 in 10.0 mi SE 11.5 mph - N/A   Overcast
10:53 AM 66.0 °F 53.1 °F 63% 30.03 in 10.0 mi SSE 10.4 mph - N/A   Overcast
11:32 AM 64.4 °F 55.4 °F 73% 30.17 in 10.0 mi South 9.2 mph - 0.00 in Thunderstorm Thunderstorm
11:53 AM 63.0 °F 57.0 °F 81% 30.03 in 10.0 mi SSE 9.2 mph 18.4 mph 0.00 in Rain Light Rain
12:53 PM 63.0 °F 60.1 °F 90% 30.02 in 10.0 mi South 23.0 mph 31.1 mph 0.00 in Rain Light Rain
1:53 PM 63.0 °F 60.1 °F 90% 30.03 in 9.0 mi South 19.6 mph 28.8 mph 0.02 in Rain Light Rain
2:53 PM 64.9 °F 60.1 °F 84% 30.01 in 10.0 mi SE 13.8 mph - 0.03 in Rain Light Rain
3:53 PM 66.0 °F 60.1 °F 81% 30.01 in 10.0 mi SE 20.7 mph 26.5 mph 0.00 in   Clear
4:53 PM 64.9 °F 57.9 °F 78% 30.00 in 10.0 mi SE 18.4 mph - N/A   Clear
5:53 PM 66.0 °F 57.0 °F 73% 29.99 in 10.0 mi SSE 16.1 mph 23.0 mph N/A   Clear
6:53 PM 64.9 °F 57.0 °F 75% 29.97 in 10.0 mi SSE 10.4 mph - N/A   Clear
7:53 PM 64.0 °F 57.0 °F 78% 29.97 in 10.0 mi SE 11.5 mph - N/A   Clear
8:53 PM 62.1 °F 57.0 °F 84% 29.96 in 10.0 mi South 16.1 mph 23.0 mph N/A   Clear
9:53 PM 60.1 °F 57.9 °F 93% 29.96 in 10.0 mi SSE 9.2 mph - N/A   Clear
10:53 PM 60.1 °F 57.9 °F 93% 29.98 in 10.0 mi South 9.2 mph - N/A   Clear
11:53 PM 60.1 °F 57.9 °F 93% 29.99 in 10.0 mi SSE 9.2 mph - N/A   Partly Cloudy